| time (UTC) | temp F | wind direction | speed knots | gust knots | rain 1hr in | rain 24hr in | rain mn in | humidity % | barometer mb |
| 20260906113032 | 70 | 67 | 2.6 | 7.0 | 0.00 | 0.00 | 0.00 | 97 | 1014.8 |
| 20260906111529 | 71 | 78 | 5.2 | 7.8 | 0.00 | 0.00 | 0.00 | 96 | 1014.7 |
| 20260906110028 | 71 | 76 | 4.3 | 10.4 | 0.00 | 0.00 | 0.00 | 97 | 1014.4 |
| 20260906104527 | 71 | 56 | 4.3 | 8.7 | 0.00 | 0.00 | 0.00 | 97 | 1014.2 |
| 20260906103026 | 71 | 62 | 6.1 | 10.4 | 0.00 | 0.00 | 0.00 | 97 | 1014.0 |
| 20260906101525 | 71 | 60 | 5.2 | 8.7 | 0.00 | 0.00 | 0.00 | 98 | 1013.9 |
| 20260906100028 | 70 | 46 | 3.5 | 6.1 | 0.00 | 0.00 | 0.00 | 98 | 1014.1 |
| 20260906094526 | 70 | 44 | 1.7 | 4.3 | 0.00 | 0.00 | 0.00 | 98 | 1014.1 |
| 20260906093026 | 70 | 35 | 1.7 | 7.0 | 0.00 | 0.00 | 0.00 | 97 | 1014.0 |
| 20260906091525 | 70 | 7 | 1.7 | 5.2 | 0.00 | 0.00 | 0.00 | 97 | 1014.1 |
| 20260906090021 | 70 | 18 | 3.5 | 5.2 | 0.00 | 0.00 | 0.00 | 97 | 1014.2 |
| 20260906084520 | 70 | 43 | 1.7 | 5.2 | 0.00 | 0.00 | 0.00 | 97 | 1014.1 |
| 20260906083020 | 70 | 353 | 2.6 | 6.1 | 0.00 | 0.00 | 0.00 | 97 | 1014.0 |
| 20260906081520 | 70 | 53 | 1.7 | 6.1 | 0.00 | 0.00 | 0.00 | 97 | 1013.8 |
| 20260906080019 | 70 | 24 | 2.6 | 4.3 | 0.00 | 0.00 | 0.00 | 97 | 1013.9 |
| 20260906074517 | 70 | 34 | 1.7 | 6.1 | 0.00 | 0.00 | 0.00 | 97 | 1014.0 |
| 20260906073019 | 70 | 32 | 2.6 | 5.2 | 0.00 | 0.00 | 0.00 | 97 | 1013.9 |
| 20260906071517 | 70 | 48 | 1.7 | 3.5 | 0.00 | 0.00 | 0.00 | 97 | 1014.1 |
| 20260906070016 | 70 | 24 | 1.7 | 4.3 | 0.00 | 0.00 | 0.00 | 97 | 1014.2 |
| 20260906064514 | 70 | 20 | 0.9 | 4.3 | 0.00 | 0.00 | 0.00 | 97 | 1014.1 |
| 20260906063015 | 70 | 32 | 1.7 | 6.1 | 0.00 | 0.00 | 0.00 | 97 | 1014.1 |
| 20260906061512 | 70 | 18 | 1.7 | 4.3 | 0.00 | 0.00 | 0.00 | 96 | 1014.4 |
| 20260906060018 | 70 | 31 | 1.7 | 5.2 | 0.00 | 0.00 | 0.00 | 97 | 1014.2 |
| 20260906054511 | 70 | 42 | 2.6 | 5.2 | 0.00 | 0.00 | 0.00 | 97 | 1014.2 |
| 20260906053008 | 70 | 51 | 1.7 | 4.3 | 0.00 | 0.00 | 0.00 | 97 | 1013.9 |
| 20260906051505 | 70 | 63 | 2.6 | 5.2 | 0.00 | 0.00 | 0.00 | 96 | 1013.8 |
| 20260906050003 | 70 | 49 | 0.9 | 6.1 | 0.00 | 0.00 | 0.00 | 96 | 1013.8 |
| 20260906044502 | 71 | 41 | 2.6 | 5.2 | 0.00 | 0.00 | 0.00 | 95 | 1013.6 |
| 20260906043005 | 71 | 66 | 3.5 | 8.7 | 0.00 | 0.00 | 0.00 | 94 | 1013.6 |
| 20260906041601 | 72 | 49 | 4.3 | 11.3 | 0.00 | 0.00 | 0.00 | 94 | 1013.8 |
| 20260906040136 | 73 | 63 | 5.2 | 10.4 | 0.00 | 0.00 | 0.00 | 94 | 1013.6 |
| 20260906034605 | 73 | 51 | 4.3 | 9.6 | 0.00 | 0.00 | 0.00 | 93 | 1013.6 |
| 20260906033105 | 74 | 38 | 4.3 | 7.8 | 0.00 | 0.00 | 0.00 | 94 | 1013.3 |
| 20260906031554 | 74 | 57 | 3.5 | 7.8 | 0.00 | 0.00 | 0.00 | 93 | 1013.2 |
| 20260906030054 | 75 | 62 | 4.3 | 9.6 | 0.00 | 0.00 | 0.00 | 91 | 1013.2 |
| 20260906024607 | 76 | 53 | 4.3 | 10.4 | 0.00 | 0.00 | 0.00 | 90 | 1013.2 |
| 20260906023100 | 77 | 39 | 5.2 | 11.3 | 0.00 | 0.00 | 0.00 | 89 | 1012.9 |
| 20260906021549 | 78 | 64 | 5.2 | 9.6 | 0.00 | 0.00 | 0.00 | 88 | 1012.6 |
| 20260906020049 | 79 | 12 | 5.2 | 10.4 | 0.00 | 0.00 | 0.00 | 87 | 1012.4 |
| 20260906014548 | 79 | 15 | 7.0 | 13.9 | 0.00 | 0.00 | 0.00 | 87 | 1012.2 |
| 20260906013047 | 80 | 61 | 6.1 | 11.3 | 0.00 | 0.00 | 0.00 | 87 | 1011.9 |
| 20260906011546 | 81 | 44 | 6.1 | 11.3 | 0.00 | 0.00 | 0.00 | 87 | 1011.7 |
| 20260906010046 | 82 | 44 | 7.0 | 13.0 | 0.00 | 0.00 | 0.00 | 84 | 1011.3 |
| 20260906004546 | 82 | 25 | 2.6 | 5.2 | 0.00 | 0.00 | 0.00 | 86 | 1011.3 |
| 20260906003045 | 83 | 25 | 1.7 | 4.3 | 0.00 | 0.00 | 0.00 | 85 | 1011.1 |
| 20260906001545 | 84 | 34 | 0.9 | 5.2 | 0.00 | 0.00 | 0.00 | 83 | 1011.0 |
| 20260906000044 | 85 | 52 | 1.7 | 6.1 | 0.00 | 0.00 | 0.00 | 83 | 1011.0 |
| 20260905234544 | 86 | 31 | 1.7 | 4.3 | 0.00 | 0.00 | 0.00 | 82 | 1010.9 |
| 20260905233053 | 87 | 32 | 1.7 | 6.1 | 0.00 | 0.00 | 0.00 | 80 | 1011.0 |
| 20260905231542 | 88 | 40 | 3.5 | 7.0 | 0.00 | 0.00 | 0.00 | 77 | 1010.8 |
| 20260905230042 | 89 | 34 | 4.3 | 8.7 | 0.00 | 0.00 | 0.00 | 76 | 1010.8 |
| 20260905224609 | 89 | 32 | 4.3 | 8.7 | 0.00 | 0.00 | 0.00 | 75 | 1010.6 |
| 20260905223044 | 91 | 15 | 4.3 | 8.7 | 0.00 | 0.00 | 0.00 | 72 | 1010.6 |
| 20260905221539 | 91 | 42 | 3.5 | 7.8 | 0.00 | 0.00 | 0.00 | 70 | 1010.6 |
| 20260905220038 | 92 | 27 | 5.2 | 8.7 | 0.00 | 0.00 | 0.00 | 68 | 1010.6 |
| 20260905214544 | 92 | 344 | 3.5 | 8.7 | 0.00 | 0.00 | 0.00 | 66 | 1010.6 |
| 20260905213038 | 93 | 358 | 2.6 | 6.1 | 0.00 | 0.00 | 0.00 | 66 | 1010.6 |
| 20260905211544 | 93 | 4 | 2.6 | 7.8 | 0.00 | 0.00 | 0.00 | 66 | 1010.5 |
| 20260905210042 | 93 | 340 | 4.3 | 8.7 | 0.00 | 0.00 | 0.00 | 64 | 1010.6 |
| 20260905204532 | 92 | 48 | 5.2 | 9.6 | 0.00 | 0.00 | 0.00 | 67 | 1010.9 |
| 20260905203032 | 92 | 32 | 4.3 | 9.6 | 0.00 | 0.00 | 0.00 | 68 | 1010.9 |
| 20260905201531 | 95 | 8 | 4.3 | 9.6 | 0.00 | 0.00 | 0.00 | 62 | 1011.0 |
| 20260905200030 | 95 | 8 | 5.2 | 7.8 | 0.00 | 0.00 | 0.00 | 61 | 1011.1 |
| 20260905194528 | 94 | 345 | 5.2 | 7.8 | 0.00 | 0.00 | 0.00 | 61 | 1011.0 |
| 20260905193027 | 93 | 1 | 2.6 | 9.6 | 0.00 | 0.00 | 0.00 | 63 | 1011.3 |
| 20260905191526 | 93 | 342 | 4.3 | 10.4 | 0.00 | 0.00 | 0.00 | 62 | 1011.4 |
| 20260905190025 | 93 | 326 | 2.6 | 9.6 | 0.00 | 0.00 | 0.00 | 63 | 1011.4 |
| 20260905184529 | 94 | 352 | 3.5 | 7.8 | 0.00 | 0.00 | 0.00 | 62 | 1011.5 |
| 20260905183122 | 94 | 355 | 3.5 | 10.4 | 0.00 | 0.00 | 0.00 | 62 | 1011.8 |
| 20260905181519 | 94 | 298 | 5.2 | 8.7 | 0.00 | 0.00 | 0.00 | 60 | 1011.9 |
| 20260905180018 | 94 | 353 | 3.5 | 7.8 | 0.00 | 0.00 | 0.00 | 62 | 1011.9 |
| 20260905174519 | 94 | 335 | 3.5 | 6.1 | 0.00 | 0.00 | 0.00 | 60 | 1012.1 |
| 20260905173016 | 94 | 49 | 4.3 | 8.7 | 0.00 | 0.00 | 0.00 | 59 | 1012.1 |
| 20260905171514 | 94 | 356 | 3.5 | 6.1 | 0.00 | 0.00 | 0.00 | 62 | 1012.3 |
| 20260905170012 | 93 | 320 | 3.5 | 7.8 | 0.00 | 0.00 | 0.00 | 62 | 1012.3 |
| 20260905164515 | 93 | 324 | 3.5 | 6.1 | 0.00 | 0.00 | 0.00 | 65 | 1012.3 |
| 20260905163010 | 93 | 303 | 2.6 | 4.3 | 0.00 | 0.00 | 0.00 | 65 | 1012.5 |
| 20260905161509 | 93 | 304 | 2.6 | 6.1 | 0.00 | 0.00 | 0.00 | 66 | 1012.6 |
| 20260905160005 | 92 | 336 | 2.6 | 5.2 | 0.00 | 0.00 | 0.00 | 67 | 1012.6 |
| 20260905154503 | 92 | 319 | 2.6 | 3.5 | 0.00 | 0.00 | 0.00 | 67 | 1012.7 |
| 20260905153101 | 91 | 302 | 2.6 | 5.2 | 0.00 | 0.00 | 0.00 | 69 | 1012.5 |
| 20260905153001 | 91 | 298 | 2.6 | 5.2 | 0.00 | 0.00 | 0.00 | 69 | 1012.4 |
| 20260905151558 | 90 | 269 | 2.6 | 5.2 | 0.00 | 0.00 | 0.00 | 71 | 1012.4 |
| 20260905150100 | 89 | 285 | 0.9 | 4.3 | 0.00 | 0.00 | 0.00 | 72 | 1012.5 |
| 20260905144552 | 88 | 279 | 0.9 | 3.5 | 0.00 | 0.00 | 0.00 | 75 | 1012.5 |
| 20260905143048 | 87 | 264 | 1.7 | 3.5 | 0.00 | 0.00 | 0.00 | 76 | 1012.7 |
| 20260905141545 | 86 | 254 | 1.7 | 3.5 | 0.00 | 0.00 | 0.00 | 77 | 1012.7 |
| 20260905140041 | 85 | 257 | 1.7 | 3.5 | 0.00 | 0.00 | 0.00 | 78 | 1012.6 |
| 20260905134537 | 84 | 273 | 1.7 | 3.5 | 0.00 | 0.00 | 0.00 | 79 | 1012.6 |
| 20260905133037 | 83 | 271 | 0.9 | 3.5 | 0.00 | 0.00 | 0.00 | 82 | 1012.6 |
| 20260905131530 | 81 | 233 | 0.9 | 2.6 | 0.00 | 0.00 | 0.00 | 84 | 1012.6 |
| 20260905130029 | 80 | 218 | 0.9 | 2.6 | 0.00 | 0.00 | 0.00 | 86 | 1012.6 |
| 20260905124526 | 79 | 224 | 0.0 | 0.9 | 0.00 | 0.00 | 0.00 | 86 | 1012.5 |
| 20260905123024 | 79 | 152 | 0.0 | 0.0 | 0.00 | 0.00 | 0.00 | 91 | 1012.5 |
| 20260905121519 | 75 | 152 | 0.0 | 0.0 | 0.00 | 0.00 | 0.00 | 96 | 1012.4 |
| 20260905120018 | 73 | 146 | 0.0 | 0.9 | 0.00 | 0.00 | 0.00 | 98 | 1012.2 |
| 20260905114516 | 72 | 227 | 0.0 | 0.0 | 0.00 | 0.00 | 0.00 | 98 | 1012.3 |